User: anonymous   Login
Location: Nag� el Ma?a??a
(24.0667°N, 32.8833°E)
Time: 06:55:13
(UTC+00:00)
Language:

BREEZE-M DEB (TANK) - Orbit

View from above orbital plane
View from above orbital plane
View from above satellite
View from above satellite

Ground track
Ground track

The orbit data is extracted from the following two-line orbital elements,

1 31863U 07032B   21341.00153511  .00000068  00000-0  11163-3 0  9999
2 31863  45.9354 330.8104 4967255  42.5896 346.8157  5.52349343289746
Epoch (UTC): 07 December 2021 00:02:12
Eccentricity: 0.4967255
inclination: 45.9354°
perigee height: 425 km
apogee height: 13855 km
right ascension of ascending node: 330.8104°
argument of perigee: 42.5896°
revolutions per day: 5.52349343
mean anomaly at epoch: 346.8157°
orbit number at epoch: 28974

The dashed part of the orbit path shows where the satellite is in the earth's shadow,  

DLR